Weather History for Guangzhou Baiyun Intl, GD

Change the Weather History Date:

Saturday, February 2, 2013

  Actual Average Record
Temperature  
Mean Temperature 72 °F -  
Max Temperature 84 °F 65 °F 84 °F (2013)
Min Temperature 60 °F 52 °F 41 °F (2008)
Cooling Degree Days 7    
Growing Degree Days 22 (Base 50)    
Moisture  
Dew Point 61 °F    
Average Humidity 72    
Maximum Humidity 100    
Minimum Humidity 40    
Precipitation  
Precipitation 0.00 in 0.09 in - ()
Sea Level Pressure  
Sea Level Pressure 30.09 in    
Wind  
Wind Speed 3 mph ()    
Max Wind Speed 9 mph    
Max Gust Speed -    
Visibility 4.5 miles    
Events      
Averages and records for this station are not official NWS values.
T = Trace of Precipitation, MM = Missing Value Source: Averaged Metar Reports

Daily Weather History Graph

Daily Weather History Graph

Search for Another Location

Airport:

Trip Planner

Search our weather history database for the weather conditions in past years. The results will help you decide how hot, cold, wet, or windy it might be!

Date:

Astronomy

Feb. 02, 2013 Rise Set
Actual Time 7:06 AM CST 6:14 PM CST
Civil Twilight 6:43 AM CST 6:38 PM CST
Nautical Twilight 6:16 AM CST 7:05 PM CST
Astronomical Twilight 5:49 AM CST 7:31 PM CST
Moon 11:58 PM CST (2/2) 10:44 AM CST (2/2)
Length of Visible Light 11h 54m
Length of Day
11h 07m
Waning Gibbous, 66% of the Moon is Illuminated
Feb 2
Waning Gibbous
Feb 3
Last Quarter
Feb 10
New
Feb 18
First Quarter
Feb 26
Full

Hourly Weather History & Observations

Time (CST) Temp. Heat Index Dew Point Humidity Pressure Visibility Wind Dir Wind Speed Gust Speed Precip Events Conditions
12:00 AM 66.2 °F - 62.6 °F 88% 30.09 in 3.1 mi Variable 2.2 mph - N/A   Mist
12:30 AM 66.2 °F - 62.6 °F 88% 30.09 in 3.1 mi ENE 2.2 mph - N/A   Mist
1:00 AM 64.4 °F - 62.6 °F 94% 30.09 in 3.1 mi East 4.5 mph - N/A   Mist
1:30 AM 64.4 °F - 60.8 °F 88% 30.09 in 3.1 mi ENE 4.5 mph - N/A   Mist
2:00 AM 64.4 °F - 60.8 °F 88% 30.09 in 3.1 mi Variable 2.2 mph - N/A   Mist
2:30 AM 62.6 °F - 60.8 °F 94% 30.09 in 3.1 mi Variable 2.2 mph - N/A   Mist
3:00 AM 62.6 °F - 60.8 °F 94% 30.09 in 3.1 mi Calm Calm - N/A   Mist
3:30 AM 62.6 °F - 60.8 °F 94% 30.09 in 3.1 mi ENE 2.2 mph - N/A   Mist
4:00 AM 62.6 °F - 60.8 °F 94% 30.09 in 3.1 mi Variable 2.2 mph - N/A   Mist
4:30 AM 62.6 °F - 60.8 °F 94% 30.09 in 2.5 mi Variable 2.2 mph - N/A   Mist
5:00 AM 62.6 °F - 60.8 °F 94% 30.09 in 2.5 mi East 2.2 mph - N/A   Mist
5:30 AM 62.6 °F - 60.8 °F 94% 30.09 in 2.5 mi Variable 2.2 mph - N/A   Mist
6:00 AM 62.6 °F - 60.8 °F 94% 30.12 in 2.5 mi East 2.2 mph - N/A   Mist
6:30 AM 62.6 °F - 60.8 °F 94% 30.12 in 2.5 mi East 2.2 mph - N/A   Mist
7:00 AM 62.6 °F - 60.8 °F 94% 30.12 in - East 2.2 mph - N/A   Mist
7:30 AM 60.8 °F - 60.8 °F 100% 30.12 in - Variable 2.2 mph - N/A   Mist
8:00 AM 60 °F - 58 °F 93% 30.17 in 7 mi NNW 4.5 mph - -   Clear
8:00 AM 62.6 °F - 60.8 °F 94% 30.15 in - Variable 2.2 mph - N/A   Mist
8:30 AM 62.6 °F - 60.8 °F 94% 30.15 in 2.2 mi Variable 2.2 mph - N/A   Mist
9:00 AM 64.4 °F - 62.6 °F 94% 30.15 in 2.5 mi Variable 2.2 mph - N/A   Mist
9:30 AM 68.0 °F - 62.6 °F 83% 30.15 in 2.5 mi Variable 2.2 mph - N/A   Mist
10:00 AM 69.8 °F - 62.6 °F 78% 30.15 in - Variable 2.2 mph - N/A   Mist
10:30 AM 73.4 °F - 62.6 °F 69% 30.18 in 2.2 mi Variable 2.2 mph - N/A   Haze
11:00 AM 75.2 °F - 62.6 °F 65% 30.15 in - Variable 2.2 mph - N/A   Haze
11:30 AM 77.0 °F - 62.6 °F 61% 30.15 in 2.5 mi Variable 2.2 mph - N/A   Haze
12:00 PM 77.0 °F - 62.6 °F 61% 30.12 in 2.5 mi Variable 2.2 mph - N/A   Haze
12:30 PM 78.8 °F - 60.8 °F 54% 30.09 in 4.3 mi ENE 4.5 mph - N/A   Unknown
1:00 PM 80.6 °F 81.5 °F 60.8 °F 51% 30.09 in 5.6 mi East 6.7 mph - N/A   Unknown
1:30 PM 80.6 °F 81.5 °F 60.8 °F 51% 30.06 in 5.6 mi East 6.7 mph - N/A   Unknown
2:00 PM 82.4 °F 82.9 °F 60.8 °F 48% 30.04 in 5.6 mi NE 4.5 mph - N/A   Unknown
2:30 PM 84.2 °F 84.4 °F 60.8 °F 45% 30.04 in 6.2 mi Variable 4.5 mph - N/A   Partly Cloudy
3:00 PM 82.4 °F 82.5 °F 59.0 °F 45% 30.01 in 6.2 mi Variable 2.2 mph - N/A   Partly Cloudy
3:30 PM 82.4 °F 82.5 °F 59.0 °F 45% 30.01 in 6.2 mi Variable 2.2 mph - N/A   Scattered Clouds
4:00 PM 84.2 °F 83.5 °F 57.2 °F 40% 30.01 in 6.2 mi NNE 4.5 mph - N/A   Mostly Cloudy
4:30 PM 82.4 °F 82.0 °F 57.2 °F 42% 30.01 in 6.2 mi East 4.5 mph - N/A   Scattered Clouds
5:00 PM 82.4 °F 82.9 °F 60.8 °F 48% 30.04 in 6.2 mi SE 4.5 mph - N/A   Scattered Clouds
5:30 PM 80.6 °F 81.5 °F 60.8 °F 51% 30.04 in 6.2 mi SSE 4.5 mph - N/A   Mostly Cloudy
6:00 PM 80.6 °F 81.8 °F 62.6 °F 54% 30.04 in 6.2 mi Variable 2.2 mph - N/A   Mostly Cloudy
6:30 PM 78.8 °F - 60.8 °F 54% 30.04 in - SSW 4.5 mph - N/A   Clear
7:00 PM 77.0 °F - 64.4 °F 65% 30.04 in - Variable 2.2 mph - N/A   Clear
7:30 PM 77.0 °F - 62.6 °F 61% 30.06 in 5.0 mi SSE 6.7 mph - N/A   Mostly Cloudy
8:00 PM 72 °F - 59 °F 54% 30.12 in 11 mi SSW 2.2 mph - -   Mostly Cloudy
8:00 PM 75.2 °F - 62.6 °F 65% 30.06 in 5.0 mi SSE 6.7 mph - N/A   Unknown
8:30 PM 75.2 °F - 62.6 °F 65% 30.09 in 5.0 mi South 8.9 mph - N/A   Unknown
9:00 PM 73.4 °F - 62.6 °F 69% 30.09 in 5.0 mi SSW 8.9 mph - N/A   Unknown
9:30 PM 73.4 °F - 60.8 °F 65% 30.09 in 5.0 mi South 6.7 mph - N/A   Unknown
10:00 PM 73.4 °F - 60.8 °F 65% 30.09 in 5.0 mi South 6.7 mph - N/A   Unknown
10:30 PM 71.6 °F - 60.8 °F 69% 30.09 in 5.0 mi SSW 6.7 mph - N/A   Unknown
11:00 PM 68 °F - 60 °F 68% 30.13 in 9 mi ESE 2.2 mph - -   Mostly Cloudy
11:00 PM 71.6 °F - 59.0 °F 64% 30.09 in 5.0 mi SSW 4.5 mph - N/A   Unknown
11:30 PM 71.6 °F - 59.0 °F 64% 30.09 in 5.0 mi South 6.7 mph - N/A   Unknown